Date String (YYYY-MM-DD hh:mm:ss) UTC,Instrument flags,Ambient pressure (hPa),Sample flow (lpm),Bypass flow (lpm),Sample temperature (°C),Ambient temperature (°C),ASC tube jacket temperature (°C),LED temperature (°C),Box temperature (°C),Sample RH (%),Span deviation,Mass concentration (μg/m³),Mass concentration (μg/m³),Mass concentration (μg/m³)
DateTimeUTC,F1_M11,P_M11,Q1_M11,Q2_M11,T1_M11,T2_M11,T3_M11,T4_M11,T5_M11,U1_M11,ZSPAN_M11,X0_M11,X2_M11,X1_M11
2022-11-30 01:00:00,,0822.4,5.00,0.00,21.8,19.9,00.0,30.9,23.4,09.7,0000.0,0008.15,0004.38,0003.96
2022-11-30 01:01:00,,0822.6,5.00,0.00,21.7,19.7,00.0,30.8,23.3,09.7,0000.0,0007.77,0004.39,0003.96
2022-11-30 01:02:00,,0822.6,5.01,0.00,21.6,19.6,00.0,30.8,23.2,09.8,0000.0,0007.90,0004.44,0003.98
2022-11-30 01:03:00,,0822.6,5.00,0.00,21.7,20.3,00.0,30.7,23.4,09.8,0000.0,0007.76,0004.41,0003.98
2022-11-30 01:04:00,,0822.6,5.00,0.00,21.8,21.4,00.0,30.7,23.6,09.7,0000.0,0007.67,0004.43,0003.98
2022-11-30 01:05:00,,0822.4,4.98,0.00,21.8,21.7,00.0,30.7,23.8,09.6,0000.0,0007.62,0004.41,0003.98
2022-11-30 01:06:00,,0822.4,5.01,0.00,21.9,21.4,00.0,30.8,23.8,09.6,0000.0,0007.72,0004.42,0003.97
2022-11-30 01:07:00,,0822.6,5.00,0.00,21.9,21.1,00.0,30.8,23.7,09.7,0000.0,0007.99,0004.42,0003.96
2022-11-30 01:08:00,,0822.6,5.00,0.00,21.8,20.9,00.0,30.8,23.6,09.6,0000.0,0008.44,0004.40,0003.95
2022-11-30 01:09:00,,0822.6,5.01,0.00,21.8,20.6,00.0,30.8,23.6,09.6,0000.0,0008.59,0004.41,0003.96
2022-11-30 01:10:00,,0822.6,5.00,0.00,21.8,20.5,00.0,30.8,23.5,09.7,0000.0,0008.66,0004.44,0003.97
2022-11-30 01:11:00,,0822.6,5.00,0.00,21.8,20.3,00.0,30.8,23.5,09.7,0000.0,0008.75,0004.45,0003.97
2022-11-30 01:12:00,,0822.6,5.00,0.00,21.8,20.3,00.0,30.8,23.5,09.7,0000.0,0008.85,0004.49,0003.97
2022-11-30 01:13:00,,0822.6,5.00,0.00,21.7,20.2,00.0,30.8,23.4,09.6,0000.0,0008.80,0004.48,0003.98
2022-11-30 01:14:00,,0822.6,5.00,0.00,21.7,20.1,00.0,30.8,23.4,09.6,0000.0,0008.78,0004.50,0004.00
2022-11-30 01:15:00,,0822.5,5.01,0.00,21.7,20.8,00.0,30.7,23.5,09.7,0000.0,0008.76,0004.51,0004.01
2022-11-30 01:16:00,,0822.4,4.99,0.00,21.8,21.7,00.0,30.7,23.8,09.6,0000.0,0008.72,0004.50,0004.01
2022-11-30 01:17:00,,0822.5,4.99,0.00,22.0,22.2,00.0,30.7,23.9,09.5,0000.0,0008.51,0004.44,0003.97
2022-11-30 01:18:00,,0822.6,4.99,0.00,22.0,21.6,00.0,30.7,23.8,09.6,0000.0,0008.18,0004.40,0003.95
2022-11-30 01:19:00,,0822.6,5.00,0.00,21.9,20.9,00.0,30.8,23.6,09.7,0000.0,0007.65,0004.41,0003.96
2022-11-30 01:20:00,,0822.5,5.00,0.00,21.8,20.4,00.0,30.8,23.5,09.7,0000.0,0007.48,0004.38,0003.93
2022-11-30 01:21:00,,0822.6,5.00,0.00,21.8,20.0,00.0,30.8,23.4,09.7,0000.0,0007.42,0004.34,0003.91
2022-11-30 01:22:00,,0822.5,5.01,0.00,21.7,19.7,00.0,30.8,23.3,09.8,0000.0,0007.49,0004.34,0003.89
2022-11-30 01:23:00,,0822.6,5.00,0.00,21.6,19.5,00.0,30.8,23.2,09.8,0000.0,0007.31,0004.27,0003.87
2022-11-30 01:24:00,,0822.6,5.00,0.00,21.6,19.6,00.0,30.7,23.2,09.8,0000.0,0007.18,0004.22,0003.84
2022-11-30 01:25:00,,0822.6,5.00,0.00,21.6,19.6,00.0,30.7,23.2,09.7,0000.0,0007.13,0004.17,0003.79
2022-11-30 01:26:00,,0822.6,5.00,0.00,21.6,20.4,00.0,30.6,23.3,09.7,0000.0,0006.97,0004.11,0003.73
2022-11-30 01:27:00,,0822.6,5.00,0.00,21.7,21.5,00.0,30.6,23.6,09.7,0000.0,0006.80,0004.06,0003.69
2022-11-30 01:28:00,,0822.6,4.98,0.00,21.8,21.7,00.0,30.6,23.7,09.6,0000.0,0006.72,0004.04,0003.69
2022-11-30 01:29:00,,0822.6,5.01,0.00,21.8,21.1,00.0,30.7,23.6,09.6,0000.0,0006.72,0004.05,0003.68
2022-11-30 01:30:00,,0822.6,5.00,0.00,21.7,20.7,00.0,30.7,23.5,09.6,0000.0,0006.73,0004.03,0003.66
2022-11-30 01:31:00,,0822.6,5.00,0.00,21.7,20.4,00.0,30.7,23.4,09.6,0000.0,0006.68,0004.01,0003.65
2022-11-30 01:32:00,,0822.6,5.00,0.00,21.7,20.3,00.0,30.7,23.4,09.6,0000.0,0006.90,0004.03,0003.67
2022-11-30 01:33:00,,0822.6,5.00,0.00,21.7,20.1,00.0,30.7,23.4,09.7,0000.0,0007.34,0004.00,0003.68
2022-11-30 01:34:00,,0822.6,5.00,0.00,21.6,20.0,00.0,30.7,23.3,09.6,0000.0,0007.26,0004.00,0003.69
2022-11-30 01:35:00,,0822.6,5.00,0.00,21.6,19.9,00.0,30.7,23.3,09.4,0000.0,0007.35,0004.05,0003.72
2022-11-30 01:36:00,,0822.6,5.00,0.00,21.6,19.8,00.0,30.6,23.3,09.3,0000.0,0007.74,0004.16,0003.81
2022-11-30 01:37:00,,0822.7,5.01,0.00,21.6,20.3,00.0,30.6,23.3,09.4,0000.0,0008.22,0004.20,0003.87
2022-11-30 01:38:00,,0822.6,5.01,0.00,21.7,21.4,00.0,30.5,23.6,09.5,0000.0,0008.48,0004.26,0003.91
2022-11-30 01:39:00,,0822.6,5.00,0.00,21.8,22.2,00.0,30.5,23.8,09.3,0000.0,0008.60,0004.32,0003.97
2022-11-30 01:40:00,,0822.7,4.99,0.00,21.9,22.1,00.0,30.6,23.9,09.1,0000.0,0009.08,0004.43,0004.06
2022-11-30 01:41:00,,0822.6,4.98,0.00,21.9,21.6,00.0,30.7,23.8,09.1,0000.0,0009.31,0004.50,0004.14
2022-11-30 01:42:00,,0822.6,5.00,0.00,21.9,21.2,00.0,30.7,23.8,09.1,0000.0,0009.47,0004.59,0004.22
2022-11-30 01:43:00,,0822.6,5.00,0.00,21.9,21.0,00.0,30.7,23.7,09.2,0000.0,0009.41,0004.63,0004.25
2022-11-30 01:44:00,,0822.6,5.00,0.00,21.8,20.8,00.0,30.7,23.7,09.2,0000.0,0009.09,0004.68,0004.30
2022-11-30 01:45:00,,0822.6,5.00,0.00,21.8,20.5,00.0,30.7,23.6,09.2,0000.0,0009.20,0004.77,0004.38
2022-11-30 01:46:00,,0822.6,5.00,0.00,21.8,20.4,00.0,30.7,23.5,09.2,0000.0,0009.22,0004.81,0004.43
2022-11-30 01:47:00,,0822.6,5.00,0.00,21.8,20.3,00.0,30.7,23.5,09.2,0000.0,0009.10,0004.80,0004.42
2022-11-30 01:48:00,,0822.7,5.00,0.00,21.7,20.2,00.0,30.7,23.5,09.3,0000.0,0008.72,0004.82,0004.42
2022-11-30 01:49:00,,0822.7,5.00,0.00,21.7,20.2,00.0,30.7,23.4,09.3,0000.0,0009.15,0004.88,0004.46
2022-11-30 01:50:00,,0822.7,5.00,0.00,21.7,20.3,00.0,30.7,23.4,09.2,0000.0,0009.19,0004.93,0004.50
2022-11-30 01:51:00,,0822.6,5.02,0.00,21.8,21.1,00.0,30.6,23.6,09.3,0000.0,0009.15,0004.96,0004.50
2022-11-30 01:52:00,,0822.6,5.00,0.00,21.9,22.0,00.0,30.6,23.9,09.3,0000.0,0009.16,0004.94,0004.48
2022-11-30 01:53:00,,0822.7,4.99,0.00,22.0,22.2,00.0,30.7,24.0,09.3,0000.0,0009.03,0004.90,0004.47
2022-11-30 01:54:00,,0822.7,5.00,0.00,22.0,21.8,00.0,30.7,23.9,09.3,0000.0,0009.09,0004.93,0004.47
2022-11-30 01:55:00,,0822.6,5.01,0.00,22.0,21.4,00.0,30.8,23.9,09.3,0000.0,0009.13,0004.99,0004.51
2022-11-30 01:56:00,,0822.6,5.00,0.00,22.0,21.1,00.0,30.8,23.8,09.3,0000.0,0009.15,0004.99,0004.50
2022-11-30 01:57:00,,0822.7,5.00,0.00,21.9,20.8,00.0,30.8,23.7,09.3,0000.0,0009.18,0004.98,0004.47
2022-11-30 01:58:00,,0822.7,5.00,0.00,21.9,20.6,00.0,30.8,23.6,09.4,0000.0,0009.05,0004.93,0004.44
2022-11-30 01:59:00,,0822.6,5.01,0.00,21.8,20.3,00.0,30.8,23.6,09.4,0000.0,0008.81,0004.87,0004.41
